User: anonymous   Login
Location: Fort Wayne
(41.1310°N, 85.1290°W)
Time: 10:40:25
(UTC-05:00)
Language:

BREEZE-M DEB (TANK) - Orbit

View from above orbital plane
View from above orbital plane
View from above satellite
View from above satellite

Ground track
Ground track

The orbit data is extracted from the following two-line orbital elements,

1 27821U 03024B   14332.51505593  .00007153  00000-0  88084-3 0  5336
2 27821 049.5938 022.1345 5000825 047.1082 047.6191 05.64199566227245
Epoch (UTC): 28 November 2014 12:21:40
Eccentricity: 0.5000825
inclination: 49.5938°
perigee height: 285 km
apogee height: 13615 km
right ascension of ascending node: 22.1345°
argument of perigee: 47.1082°
revolutions per day: 5.64199566
mean anomaly at epoch: 47.6191°
orbit number at epoch: 22724

The dashed part of the orbit path shows where the satellite is in the earth's shadow,  

DLR